Location: アルンシュタイン
(50.0000°N, 10.0000°E)
Time: 19:32:18
(UTC+02:00)

Transit 4A - All Passes

Search period start: 11 September 2024 00:00
Search period end: 21 September 2024 00:00
Orbit: 866 x 976 km, 66.8° (Epoch: 10 September)

Date Brightness Start Highest point End Pass type
(mag) Time Alt. Az. Time Alt. Az. Time Alt. Az.
11 Sep - 04:29:27 10° S 04:34:33 32° ESE 04:39:47 10° NE visible
11 Sep - 06:14:48 10° SW 06:20:35 58° NW 06:26:34 10° NNE visible
11 Sep - 08:03:43 10° WNW 08:08:14 22° NNW 08:12:50 10° NNE daylight
11 Sep - 09:53:14 10° NNW 09:56:57 16° N 10:00:44 10° NE daylight
11 Sep - 11:40:14 10° NNW 11:45:26 28° NNE 11:50:45 10° E daylight
11 Sep - 13:26:24 10° NW 13:32:37 86° NE 13:38:58 10° SE daylight
11 Sep - 15:13:44 10° WNW 15:18:18 22° WSW 15:22:55 10° SSW daylight
12 Sep - 04:37:48 10° S 04:43:20 45° ESE 04:49:01 10° NE visible
12 Sep - 06:24:06 10° WSW 06:29:44 45° NW 06:35:32 10° NNE daylight
12 Sep - 08:13:30 10° WNW 08:17:40 19° NNW 08:21:56 10° NNE daylight
12 Sep - 10:02:33 10° NNW 10:06:28 17° N 10:10:27 10° NE daylight
12 Sep - 11:49:10 10° NNW 11:54:44 34° NE 12:00:25 10° E daylight
12 Sep - 13:35:25 10° NW 13:41:37 72° WSW 13:47:54 10° SSE daylight
12 Sep - 15:23:36 10° WNW 15:26:57 15° WSW 15:30:19 10° SW daylight
13 Sep - 03:05:10 10° ESE 03:07:06 12° E 03:09:02 10° E visible
13 Sep - 04:46:26 10° SSW 04:52:12 64° ESE 04:58:08 10° NE visible
13 Sep - 06:33:33 10° WSW 06:38:56 35° NW 06:44:28 10° NNE daylight
13 Sep - 08:23:15 10° NW 08:27:09 17° N 08:31:08 10° NNE daylight
13 Sep - 10:11:44 10° NNW 10:15:58 19° NNE 10:20:15 10° ENE daylight
13 Sep - 11:58:07 10° NNW 12:03:58 42° NE 12:09:57 10° ESE daylight
13 Sep - 13:44:30 10° NW 13:50:31 53° WSW 13:56:38 10° SSE daylight
14 Sep - 03:11:58 10° SE 03:15:41 18° ESE 03:19:28 10° ENE visible
14 Sep - 04:55:16 10° SSW 05:01:07 86° SE 05:07:12 10° NE visible
14 Sep - 06:43:08 10° W 06:48:13 29° NNW 06:53:27 10° NNE daylight
14 Sep - 08:32:57 10° NW 08:36:40 16° N 08:40:27 10° NNE daylight
14 Sep - 10:20:49 10° NNW 10:25:25 21° NNE 10:30:05 10° ENE daylight
14 Sep - 12:07:04 10° NNW 12:13:08 54° NE 12:19:20 10° ESE daylight
14 Sep - 13:53:41 10° NW 13:59:22 38° WSW 14:05:07 10° S daylight
15 Sep - 03:19:41 10° SSE 03:24:21 25° ESE 03:29:08 10° NE visible
15 Sep - 05:04:17 10° SW 05:10:08 71° NW 05:16:12 10° NE visible
15 Sep - 06:52:48 10° W 06:57:34 24° NNW 07:02:27 10° NNE daylight
15 Sep - 08:42:31 10° NW 08:46:12 16° N 08:49:56 10° NE daylight
15 Sep - 10:29:50 10° NNW 10:34:49 25° NNE 10:39:52 10° E daylight
15 Sep - 12:16:01 10° NW 12:22:14 71° NE 12:28:33 10° SE daylight
15 Sep - 14:03:00 10° NW 14:08:07 28° WSW 14:13:20 10° SSW daylight
16 Sep - 03:27:50 10° S 03:33:05 36° ESE 03:38:29 10° NE visible
16 Sep - 05:13:28 10° WSW 05:19:13 54° NW 05:25:11 10° NNE visible
16 Sep - 07:02:32 10° WNW 07:06:58 21° NNW 07:11:30 10° NNE daylight
16 Sep - 08:51:56 10° NNW 08:55:43 17° N 08:59:34 10° NE daylight
16 Sep - 10:38:48 10° NNW 10:44:09 30° NNE 10:49:36 10° E daylight
16 Sep - 12:25:01 10° NW 12:31:15 88° SW 12:37:36 10° SSE daylight
16 Sep - 14:12:32 10° WNW 14:16:50 20° WSW 14:21:10 10° SSW daylight
17 Sep - 03:36:16 10° S 03:41:54 50° ESE 03:47:41 10° NE visible
17 Sep - 05:22:48 10° WSW 05:28:23 42° NW 05:34:08 10° NNE visible
17 Sep - 07:12:18 10° WNW 07:16:25 19° NNW 07:20:37 10° NNE daylight
17 Sep - 09:01:12 10° NNW 09:05:14 18° NNE 09:09:19 10° NE daylight
17 Sep - 10:47:46 10° NNW 10:53:26 36° NE 10:59:12 10° ESE daylight
17 Sep - 12:34:03 10° NW 12:40:13 66° WSW 12:46:29 10° SSE daylight
17 Sep - 14:22:37 10° WNW 14:25:27 13° W 14:28:18 10° SW daylight
18 Sep - 02:02:55 10° SE 02:05:34 13° E 02:08:15 10° ENE visible
18 Sep - 03:44:57 10° SSW 03:50:47 70° ESE 03:56:47 10° NE visible
18 Sep - 05:32:18 10° W 05:37:37 33° NW 05:43:05 10° NNE visible
18 Sep - 07:22:03 10° NW 07:25:55 17° N 07:29:50 10° NNE daylight
18 Sep - 09:10:21 10° NNW 09:14:43 20° NNE 09:19:08 10° ENE daylight
18 Sep - 10:56:42 10° NNW 11:02:39 46° NE 11:08:42 10° ESE daylight
18 Sep - 12:43:08 10° NW 12:49:05 48° WSW 12:55:08 10° S daylight
19 Sep - 02:10:06 10° SSE 02:14:10 20° ESE 02:18:19 10° ENE visible
19 Sep - 03:53:50 10° SW 03:59:43 87° NW 04:05:49 10° NE visible
19 Sep - 05:41:54 10° W 05:46:55 27° NNW 05:52:03 10° NNE visible
19 Sep - 07:31:42 10° NW 07:35:25 16° N 07:39:12 10° NE daylight
19 Sep - 09:19:25 10° NNW 09:24:08 22° NNE 09:28:56 10° ENE daylight
19 Sep - 11:05:39 10° NNW 11:11:46 59° NE 11:18:02 10° SE daylight
19 Sep - 12:52:21 10° NW 12:57:54 35° WSW 13:03:32 10° S daylight
20 Sep - 02:17:59 10° SSE 02:22:51 28° ESE 02:27:52 10° NE visible
20 Sep - 04:02:53 10° SW 04:08:45 66° NW 04:14:48 10° NNE visible
20 Sep - 05:51:35 10° WNW 05:56:16 23° NNW 06:01:04 10° NNE visible
20 Sep - 07:41:14 10° NW 07:44:57 16° N 07:48:44 10° NE daylight
20 Sep - 09:28:25 10° NNW 09:33:31 26° NNE 09:38:43 10° E daylight
20 Sep - 11:14:36 10° NW 11:20:51 77° NE 11:27:12 10° SE daylight
20 Sep - 13:01:42 10° NW 13:06:39 25° WSW 13:11:39 10° SSW daylight
